Showing default

O3B FM6, 40081

Orbit data source: Space-Track

O3B FM6, 40081 is a payload satellite owned by O3B (JE) that was launched on Thu, 10 Jul 2014 UTC via a SOYUZ-ST-B launch vehicle from the French Guiana (FRGUI). Payload-class satellites include a variety of spacecraft equipped with specific instruments for various scientific and technological missions. These include communications satellites like Starlink; space stations such as the ISS; scientific satellites like the Hubble; Earth observation satellites from companies like Planet Labs, Umbra, and HawkEye 360; GPS; miniature CubeSats for education and research; and military/defense satellites.

Loading next visibility...
Identifier
40081, 2014-038C
Orbit
Active
Last TLE update
15 hours ago
Origin
Manufacturer
Thales Alenia
Mission
Operational Commercial Communications
Bus & Motor
PRISMA?, LS-400 AOCS?
Mass
700 kg wet, ~500 kg dry
Launch date (UTC)
2014-07-10 (11 years ago)
Launch vehicle
SOYUZ-ST-B
Launch site
French Guiana (FRGUI)
Object type
Payload
Rocket body
Debris
Shape & HBR
Trap Box + 2 Pan, 12 m
Radar Cross Section
21.980 m², Large (>1 m²)

Expand to show TLE details & history

TLE from 15 hours ago
0 O3B FM6
1 40081U 14038C   25182.47094836 -.00000024  00000-0  00000-0 0  9995
2 40081   0.0514   5.5655 0002787  93.9896 260.4740  5.00115679200277
Epoch: 2025-07-01T11:18Z
TLE epoch observation values (Epoch: 2025-07-01T11:18:09.938Z)
Latitude
-0.00622°
Longitude
-89.30732°
Altitude
8,065.036 km
Speed
5.254 km/s
True Right ascension
00h 00m 00s
True Declination
0° 00' 22"
Sunlit
Object was in daylight at epoch
Visualization orbit readout
Latitude
0.02982°
Longitude
-50.64934°
Altitude
8,062.426 km
Speed
5.255 km/s
Apparent Right ascension
02h 24m 16s
Apparent Declination
-11° 54' 03"
Sunlit
Object is in daylight
Visualization observer readout
Local Sidereal Time
13:53:38
Azimuth
344.308° N
Elevation
-61.179°
Doppler factor
1
Orbital elements
Apogee altitude
8,072.972 km
Perigee altitude
8,064.919 km
Semi-major axis
14,447.082 km
Eccentricity
0.00028
Inclination
0.0514°
RAAN
5.5655°
Arg. of periapsis
93.9896°
True anomaly
Unknown
Mean anomaly
260.474°
Eccentric anomaly
Unknown
Mean motion
1.24989 °/min
Orbital period
288.02 mins
BSTAR
0
Loading maneuver chart data...
Loading SW <> Apogee altitude chart data...
Loading historical data...
Loading historical data...
Loading historical data...
Loading historical data...
Loading historical data...
Loading historical data...
Loading historical data...
Other satellites on launch #38 in the year 2014 (2014-07-10 UTC)

O3B FM6 Visibility forecast

Observer location: undefined°, undefined°

Span
Click to sort rows by Start time (UTC) header in descending order
Start Az.
Max El. time (UTC)
Max El. Az.
Max El.
End time (UTC)
End Az.
79 mins2025-07-02 04:22:35.975Z232.322° WSW2025-07-02 05:02:35.975Z179.546° S24.327°2025-07-02 05:41:35.975Z128.126° SE
78 mins2025-07-02 10:23:35.975Z231.34° WSW2025-07-02 11:02:35.975Z179.613° S24.351°2025-07-02 11:41:35.975Z128.091° SE
78 mins2025-07-02 16:23:35.975Z231.416° WSW2025-07-02 17:02:35.975Z179.593° S24.411°2025-07-02 17:41:35.975Z128.029° SE
78 mins2025-07-02 22:23:35.975Z231.405° WSW2025-07-02 23:02:35.975Z179.525° S24.387°2025-07-02 23:41:35.975Z128.066° SE
|